Location: Gull Harbor
(47.1000°N, 122.9000°W)
Time: 05:04:28
(UTC-07:00)

Tiangong 2 - Pass Details

Date: 31 March 2019
Orbit: 378 x 390 km, 42.8° (Epoch: 24 April)

Event Time Altitude Azimuth Distance (km) Brightness Sun altitude
Rises 21:00:47 0° 228° (SW) 2,237 5.3 -14.1°
Reaches altitude 10° 21:03:09 10° 211° (SSW) 1,385 4.0 -14.5°
Enters shadow 21:05:16 20° 168° (SSE) 937 2.7 -14.8°
